| time (UTC) | temp F | wind direction | speed MPH | gust MPH | rain 1hr in | rain 24hr in | rain mn in | humidity % | barometer mb |
| 20260831220017 | 78 | 248 | 2.0 | 6.0 | 0.00 | 0.00 | 0.00 | 53 | 1017.7 |
| 20260831215037 | 78 | 225 | 2.0 | 5.0 | 0.00 | 0.00 | 0.00 | 51 | 1017.6 |
| 20260831214017 | 79 | 293 | 1.0 | 4.0 | 0.00 | 0.00 | 0.00 | 48 | 1017.6 |
| 20260831213017 | 80 | 270 | 2.0 | 6.0 | 0.00 | 0.00 | 0.00 | 48 | 1017.7 |
| 20260831212017 | 80 | 225 | 2.0 | 6.0 | 0.00 | 0.00 | 0.00 | 48 | 1017.9 |
| 20260831211017 | 80 | 338 | 1.0 | 4.0 | 0.00 | 0.00 | 0.00 | 48 | 1017.9 |
| 20260831210017 | 80 | 315 | 2.0 | 5.0 | 0.00 | 0.00 | 0.00 | 47 | 1018.0 |
| 20260831205017 | 81 | 338 | 2.0 | 5.0 | 0.00 | 0.00 | 0.00 | 46 | 1017.9 |
| 20260831204017 | 81 | 180 | 1.0 | 4.0 | 0.00 | 0.00 | 0.00 | 47 | 1018.0 |
| 20260831203017 | 81 | 203 | 1.0 | 4.0 | 0.00 | 0.00 | 0.00 | 45 | 1017.9 |
| 20260831202017 | 81 | 248 | 2.0 | 7.0 | 0.00 | 0.00 | 0.00 | 46 | 1018.0 |
| 20260831201017 | 82 | 248 | 1.0 | 4.0 | 0.00 | 0.00 | 0.00 | 44 | 1017.9 |
| 20260831200017 | 81 | 203 | 2.0 | 7.0 | 0.00 | 0.00 | 0.00 | 44 | 1018.0 |
| 20260831195037 | 82 | 225 | 2.0 | 6.0 | 0.00 | 0.00 | 0.00 | 44 | 1018.2 |
| 20260831194057 | 82 | 180 | 2.0 | 5.0 | 0.00 | 0.00 | 0.00 | 44 | 1018.2 |
| 20260831193017 | 81 | 180 | 2.0 | 6.0 | 0.00 | 0.00 | 0.00 | 44 | 1018.2 |
| 20260831192017 | 81 | 225 | 2.0 | 6.0 | 0.00 | 0.00 | 0.00 | 44 | 1018.2 |
| 20260831191017 | 80 | 315 | 2.0 | 5.0 | 0.00 | 0.00 | 0.00 | 44 | 1018.5 |
| 20260831190017 | 80 | 315 | 1.0 | 4.0 | 0.00 | 0.00 | 0.00 | 44 | 1018.6 |
| 20260831185017 | 80 | 180 | 1.0 | 4.0 | 0.00 | 0.00 | 0.00 | 43 | 1018.6 |
| 20260831184037 | 80 | 0 | 2.0 | 7.0 | 0.00 | 0.00 | 0.00 | 41 | 1018.7 |
| 20260831183016 | 80 | 338 | 2.0 | 4.0 | 0.00 | 0.00 | 0.00 | 43 | 1018.8 |
| 20260831182017 | 79 | 23 | 3.0 | 6.0 | 0.00 | 0.00 | 0.00 | 42 | 1019.0 |
| 20260831181017 | 80 | 315 | 3.0 | 7.0 | 0.00 | 0.00 | 0.00 | 42 | 1019.1 |
| 20260831180017 | 81 | 338 | 2.0 | 6.0 | 0.00 | 0.00 | 0.00 | 40 | 1019.1 |
| 20260831175037 | 81 | 270 | 2.0 | 4.0 | 0.00 | 0.00 | 0.00 | 41 | 1019.0 |
| 20260831174016 | 80 | 338 | 2.0 | 8.0 | 0.00 | 0.00 | 0.00 | 42 | 1019.0 |
| 20260831173016 | 81 | 23 | 1.0 | 5.0 | 0.00 | 0.00 | 0.00 | 40 | 1019.2 |
| 20260831172016 | 80 | 45 | 2.0 | 5.0 | 0.00 | 0.00 | 0.00 | 40 | 1019.4 |
| 20260831171016 | 79 | 135 | 1.0 | 3.0 | 0.00 | 0.00 | 0.00 | 41 | 1019.6 |
| 20260831170016 | 78 | 68 | 2.0 | 6.0 | 0.00 | 0.00 | 0.00 | 39 | 1019.5 |
| 20260831165016 | 79 | 293 | 2.0 | 6.0 | 0.00 | 0.00 | 0.00 | 41 | 1019.7 |
| 20260831164016 | 79 | 270 | 1.0 | 3.0 | 0.00 | 0.00 | 0.00 | 41 | 1019.8 |
| 20260831163016 | 80 | 338 | 2.0 | 5.0 | 0.00 | 0.00 | 0.00 | 40 | 1019.8 |
| 20260831162056 | 80 | 293 | 1.0 | 4.0 | 0.00 | 0.00 | 0.00 | 41 | 1019.9 |
| 20260831161016 | 79 | 293 | 1.0 | 5.0 | 0.00 | 0.00 | 0.00 | 43 | 1020.0 |
| 20260831160037 | 79 | 248 | 1.0 | 4.0 | 0.00 | 0.00 | 0.00 | 42 | 1020.0 |
| 20260831155036 | 79 | 180 | 1.0 | 3.0 | 0.00 | 0.00 | 0.00 | 45 | 1020.1 |
| 20260831154017 | 78 | 180 | 1.0 | 4.0 | 0.00 | 0.00 | 0.00 | 46 | 1020.2 |
| 20260831153016 | 78 | 248 | 1.0 | 4.0 | 0.00 | 0.00 | 0.00 | 47 | 1020.2 |
| 20260831152036 | 77 | 315 | 1.0 | 5.0 | 0.00 | 0.00 | 0.00 | 47 | 1020.2 |
| 20260831151016 | 76 | 180 | 2.0 | 5.0 | 0.00 | 0.00 | 0.00 | 50 | 1020.4 |
| 20260831150016 | 75 | 180 | 3.0 | 5.0 | 0.00 | 0.00 | 0.00 | 49 | 1020.4 |
| 20260831145036 | 75 | 270 | 2.0 | 5.0 | 0.00 | 0.00 | 0.00 | 50 | 1020.4 |
| 20260831144056 | 74 | 270 | 2.0 | 4.0 | 0.00 | 0.00 | 0.00 | 51 | 1020.5 |
| 20260831143016 | 74 | 225 | 1.0 | 3.0 | 0.00 | 0.00 | 0.00 | 53 | 1020.5 |
| 20260831142016 | 74 | 203 | 1.0 | 3.0 | 0.00 | 0.00 | 0.00 | 52 | 1020.6 |
| 20260831141016 | 73 | 180 | 1.0 | 3.0 | 0.00 | 0.00 | 0.00 | 53 | 1020.5 |
| 20260831140016 | 73 | 135 | 1.0 | 5.0 | 0.00 | 0.00 | 0.00 | 53 | 1020.5 |
| 20260831135016 | 73 | 180 | 1.0 | 4.0 | 0.00 | 0.00 | 0.00 | 54 | 1020.4 |
| 20260831134016 | 72 | 68 | 1.0 | 3.0 | 0.00 | 0.00 | 0.00 | 54 | 1020.4 |
| 20260831133016 | 71 | 158 | 1.0 | 5.0 | 0.00 | 0.00 | 0.00 | 54 | 1020.4 |
| 20260831132016 | 71 | 135 | 2.0 | 4.0 | 0.00 | 0.00 | 0.00 | 56 | 1020.3 |
| 20260831131016 | 70 | 0 | 2.0 | 4.0 | 0.00 | 0.00 | 0.00 | 57 | 1020.3 |
| 20260831130016 | 69 | 135 | 1.0 | 4.0 | 0.00 | 0.00 | 0.00 | 59 | 1020.2 |
| 20260831125016 | 68 | 68 | 2.0 | 5.0 | 0.00 | 0.00 | 0.00 | 61 | 1020.2 |
| 20260831124016 | 68 | 45 | 1.0 | 5.0 | 0.00 | 0.00 | 0.00 | 66 | 1020.3 |
| 20260831123016 | 67 | 338 | 2.0 | 7.0 | 0.00 | 0.00 | 0.00 | 68 | 1020.2 |
| 20260831122016 | 66 | 23 | 2.0 | 5.0 | 0.00 | 0.00 | 0.00 | 71 | 1020.1 |
| 20260831121016 | 65 | 0 | 3.0 | 6.0 | 0.00 | 0.00 | 0.00 | 73 | 1020.0 |
| 20260831120016 | 64 | 338 | 1.0 | 5.0 | 0.00 | 0.00 | 0.00 | 77 | 1020.0 |
| 20260831115016 | 63 | 0 | 1.0 | 4.0 | 0.00 | 0.00 | 0.00 | 80 | 1019.9 |
| 20260831114016 | 63 | 0 | 3.0 | 5.0 | 0.00 | 0.00 | 0.00 | 81 | 1019.8 |
| 20260831113016 | 62 | 23 | 2.0 | 5.0 | 0.00 | 0.00 | 0.00 | 82 | 1019.8 |
| 20260831112016 | 62 | 0 | 1.0 | 5.0 | 0.00 | 0.00 | 0.00 | 85 | 1019.6 |
| 20260831111016 | 61 | 0 | 2.0 | 5.0 | 0.00 | 0.00 | 0.00 | 86 | 1019.5 |
| 20260831110016 | 61 | 0 | 2.0 | 4.0 | 0.00 | 0.00 | 0.00 | 87 | 1019.5 |
| 20260831105016 | 60 | 0 | 1.0 | 4.0 | 0.00 | 0.00 | 0.00 | 89 | 1019.6 |
| 20260831104016 | 60 | 0 | 1.0 | 3.0 | 0.00 | 0.00 | 0.00 | 90 | 1019.5 |
| 20260831103036 | 60 | 0.0 | 4.0 | 0.00 | 0.00 | 0.00 | 90 | 1019.3 | |
| 20260831102036 | 61 | 0.0 | 0.0 | 0.00 | 0.00 | 0.00 | 90 | 1019.3 | |
| 20260831101016 | 61 | 0.0 | 0.0 | 0.00 | 0.00 | 0.00 | 90 | 1019.2 | |
| 20260831100016 | 61 | 0.0 | 1.0 | 0.00 | 0.00 | 0.00 | 90 | 1019.2 | |
| 20260831095016 | 61 | 0 | 1.0 | 3.0 | 0.00 | 0.00 | 0.00 | 90 | 1019.0 |
| 20260831094036 | 62 | 0.0 | 1.0 | 0.00 | 0.00 | 0.00 | 89 | 1018.9 | |
| 20260831093016 | 62 | 0.0 | 0.0 | 0.00 | 0.00 | 0.00 | 89 | 1018.8 | |
| 20260831092036 | 62 | 0.0 | 0.0 | 0.00 | 0.00 | 0.00 | 89 | 1018.8 | |
| 20260831091016 | 62 | 0.0 | 0.0 | 0.00 | 0.00 | 0.00 | 88 | 1018.6 | |
| 20260831090016 | 63 | 0.0 | 0.0 | 0.00 | 0.00 | 0.00 | 87 | 1018.5 | |
| 20260831085016 | 63 | 0.0 | 0.0 | 0.00 | 0.00 | 0.00 | 87 | 1018.3 | |
| 20260831084016 | 64 | 0.0 | 0.0 | 0.00 | 0.00 | 0.00 | 86 | 1018.2 | |
| 20260831083016 | 64 | 0.0 | 0.0 | 0.00 | 0.00 | 0.00 | 86 | 1018.1 | |
| 20260831082015 | 64 | 0.0 | 0.0 | 0.00 | 0.00 | 0.00 | 85 | 1018.1 | |
| 20260831081016 | 65 | 0.0 | 0.0 | 0.00 | 0.00 | 0.00 | 84 | 1018.0 | |
| 20260831080016 | 65 | 0.0 | 0.0 | 0.00 | 0.00 | 0.00 | 84 | 1018.0 | |
| 20260831075016 | 65 | 0.0 | 2.0 | 0.00 | 0.00 | 0.00 | 84 | 1017.9 | |
| 20260831074015 | 66 | 0 | 1.0 | 3.0 | 0.00 | 0.00 | 0.00 | 84 | 1017.7 |
| 20260831073016 | 66 | 0 | 1.0 | 2.0 | 0.00 | 0.00 | 0.00 | 83 | 1017.7 |
| 20260831072036 | 66 | 0 | 1.0 | 4.0 | 0.00 | 0.00 | 0.00 | 82 | 1017.7 |
| 20260831071015 | 66 | 338 | 1.0 | 3.0 | 0.00 | 0.00 | 0.00 | 82 | 1017.8 |
| 20260831070015 | 67 | 0.0 | 2.0 | 0.00 | 0.00 | 0.00 | 82 | 1017.7 | |
| 20260831065015 | 67 | 338 | 1.0 | 3.0 | 0.00 | 0.00 | 0.00 | 81 | 1017.7 |
| 20260831064036 | 67 | 338 | 1.0 | 3.0 | 0.00 | 0.00 | 0.00 | 80 | 1017.7 |
| 20260831063016 | 68 | 0.0 | 0.0 | 0.00 | 0.00 | 0.00 | 79 | 1017.7 | |
| 20260831062016 | 68 | 0.0 | 0.0 | 0.00 | 0.00 | 0.00 | 78 | 1017.6 | |
| 20260831061015 | 68 | 0.0 | 0.0 | 0.00 | 0.00 | 0.00 | 78 | 1017.5 | |
| 20260831060015 | 69 | 0.0 | 0.0 | 0.00 | 0.00 | 0.00 | 78 | 1017.4 | |
| 20260831055015 | 69 | 0.0 | 2.0 | 0.00 | 0.00 | 0.00 | 77 | 1017.3 | |
| 20260831054015 | 69 | 0.0 | 2.0 | 0.00 | 0.00 | 0.00 | 77 | 1017.4 | |
| 20260831053015 | 69 | 338 | 1.0 | 4.0 | 0.00 | 0.00 | 0.00 | 76 | 1017.3 |
| 20260831052015 | 70 | 338 | 1.0 | 4.0 | 0.00 | 0.00 | 0.00 | 76 | 1017.3 |
| 20260831051015 | 70 | 0.0 | 0.0 | 0.00 | 0.00 | 0.00 | 75 | 1017.2 | |
| 20260831050015 | 70 | 0.0 | 2.0 | 0.00 | 0.00 | 0.00 | 74 | 1017.0 | |
| 20260831045016 | 71 | 338 | 1.0 | 3.0 | 0.00 | 0.00 | 0.00 | 74 | 1016.9 |
| 20260831044015 | 71 | 338 | 1.0 | 3.0 | 0.00 | 0.00 | 0.00 | 74 | 1016.8 |
| 20260831043015 | 71 | 338 | 1.0 | 4.0 | 0.00 | 0.00 | 0.00 | 73 | 1016.8 |
| 20260831042015 | 71 | 0 | 2.0 | 6.0 | 0.00 | 0.00 | 0.00 | 73 | 1016.7 |
| 20260831041015 | 72 | 0 | 1.0 | 5.0 | 0.00 | 0.00 | 0.00 | 72 | 1016.6 |
| 20260831040017 | 72 | 0 | 1.0 | 3.0 | 0.00 | 0.00 | 0.00 | 72 | 1016.6 |
| 20260831035016 | 72 | 0 | 1.0 | 4.0 | 0.00 | 0.00 | 0.00 | 71 | 1016.5 |
| 20260831034015 | 72 | 315 | 2.0 | 7.0 | 0.00 | 0.00 | 0.00 | 71 | 1016.6 |
| 20260831033016 | 73 | 315 | 2.0 | 4.0 | 0.00 | 0.00 | 0.00 | 71 | 1016.6 |
| 20260831032015 | 73 | 338 | 2.0 | 6.0 | 0.00 | 0.00 | 0.00 | 72 | 1016.8 |
| 20260831031016 | 73 | 338 | 1.0 | 3.0 | 0.00 | 0.00 | 0.00 | 73 | 1016.7 |
| 20260831030015 | 73 | 0.0 | 2.0 | 0.00 | 0.00 | 0.00 | 73 | 1016.6 | |
| 20260831025036 | 73 | 315 | 1.0 | 5.0 | 0.00 | 0.00 | 0.00 | 73 | 1016.5 |
| 20260831024016 | 73 | 293 | 1.0 | 4.0 | 0.00 | 0.00 | 0.00 | 74 | 1016.6 |
| 20260831023036 | 73 | 270 | 1.0 | 5.0 | 0.00 | 0.00 | 0.00 | 74 | 1016.6 |
| 20260831022016 | 73 | 338 | 1.0 | 3.0 | 0.00 | 0.00 | 0.00 | 75 | 1016.7 |
| 20260831021015 | 73 | 293 | 1.0 | 4.0 | 0.00 | 0.00 | 0.00 | 75 | 1016.6 |
| 20260831020016 | 73 | 248 | 1.0 | 3.0 | 0.00 | 0.00 | 0.00 | 75 | 1016.5 |
| 20260831015016 | 74 | 0.0 | 2.0 | 0.00 | 0.00 | 0.00 | 75 | 1016.4 | |
| 20260831014016 | 74 | 225 | 1.0 | 6.0 | 0.00 | 0.00 | 0.00 | 74 | 1016.3 |
| 20260831013015 | 74 | 225 | 1.0 | 3.0 | 0.00 | 0.00 | 0.00 | 73 | 1016.3 |
| 20260831012016 | 74 | 225 | 1.0 | 5.0 | 0.00 | 0.00 | 0.00 | 73 | 1016.1 |
| 20260831011015 | 74 | 225 | 1.0 | 5.0 | 0.00 | 0.00 | 0.00 | 72 | 1016.0 |
| 20260831010015 | 74 | 180 | 1.0 | 5.0 | 0.00 | 0.00 | 0.00 | 72 | 1016.0 |
| 20260831005016 | 74 | 203 | 2.0 | 8.0 | 0.00 | 0.00 | 0.00 | 72 | 1015.9 |
| 20260831004015 | 74 | 225 | 1.0 | 6.0 | 0.00 | 0.00 | 0.00 | 71 | 1015.7 |
| 20260831003016 | 75 | 248 | 1.0 | 4.0 | 0.00 | 0.00 | 0.00 | 70 | 1015.7 |
| 20260831002015 | 75 | 248 | 1.0 | 4.0 | 0.00 | 0.00 | 0.00 | 69 | 1015.6 |
| 20260831001035 | 75 | 225 | 1.0 | 3.0 | 0.00 | 0.00 | 0.00 | 69 | 1015.4 |
| 20260831000015 | 75 | 225 | 2.0 | 4.0 | 0.00 | 0.00 | 0.00 | 68 | 1015.4 |
| 20260830235016 | 75 | 225 | 2.0 | 5.0 | 0.00 | 0.00 | 0.00 | 67 | 1015.2 |
| 20260830234035 | 75 | 225 | 1.0 | 4.0 | 0.00 | 0.00 | 0.00 | 65 | 1015.2 |
| 20260830233015 | 75 | 203 | 1.0 | 3.0 | 0.00 | 0.00 | 0.00 | 63 | 1015.2 |
| 20260830232015 | 75 | 180 | 1.0 | 4.0 | 0.00 | 0.00 | 0.00 | 62 | 1015.1 |
| 20260830231016 | 76 | 158 | 1.0 | 5.0 | 0.00 | 0.00 | 0.00 | 61 | 1015.2 |
| 20260830230017 | 76 | 0.0 | 2.0 | 0.00 | 0.00 | 0.00 | 60 | 1015.3 | |
| 20260830225017 | 76 | 203 | 1.0 | 3.0 | 0.00 | 0.00 | 0.00 | 59 | 1015.4 |
| 20260830224017 | 76 | 203 | 1.0 | 4.0 | 0.00 | 0.00 | 0.00 | 59 | 1015.5 |
| 20260830223037 | 77 | 248 | 1.0 | 4.0 | 0.00 | 0.00 | 0.00 | 58 | 1015.5 |
| 20260830222017 | 77 | 203 | 2.0 | 6.0 | 0.00 | 0.00 | 0.00 | 58 | 1015.6 |
| 20260830221037 | 77 | 225 | 2.0 | 6.0 | 0.00 | 0.00 | 0.00 | 57 | 1015.6 |